Погода в Черкутине

Россия / Владимирская область     56°11′19″N   39°45′55″E
темп.,
°C
ветер,
м/с
пор.,
м/с
влажн.,
%
обл.,
%
осадки,
мм/ч
давл.,
гПа
погр.,
м
5 марта, пт
пт500:00−9ссз239695 0.0 100138
03:00−9сз239697 0.1 100355
06:00−11зсз339772 0.1 100440
09:00−9зсз379550 0.1 1005230
12:00−4зсз578599 0.0 1006890
15:00−4зсз5877100 0.4 10081231
18:00−7зсз488699 0.3 1010154
21:00−11сз349163 0.3 101364
6 марта, сб
сб600:00−14сз129017 0.0 101420
03:00−14зюз22949 0.0 101620
06:00−14з23940 0.0 101521
09:00−11зсз259524 0.0 1016190
12:00−8сз358893 0.1 1016579
15:00−8сз358297 0.2 1015865
18:00−12зсз338789 0.0 101523
21:00−14зюз238944 0.0 101420
7 марта, вс
вс700:00−14ююз46920 0.0 101281
03:00−13ююз510962 0.0 1009197
06:00−10ююз7149496 0.1 1004564
09:00−7ююз8158898 0.3 999854
12:00−5ююз91593100 1.3 9951137
15:00−3юз81494100 3.2 9921054
18:00−7зсз5128193 0.4 993437
21:00−9з4128462 0.4 995436
8 марта, пн
пн800:00−12юз479457 0.0 995110
03:00−8юз4109679 1.4 993393
06:00−8зсз4993100 0.3 992358
09:00−10сз4791100 0.8 994367
12:00−10зсз6118995 0.1 996705
15:00−8сз8128897 0.3 9991144
18:00−10сз61191100 0.2 1003734
21:00−13сз5129181 0.3 1006373
9 марта, вт
вт900:00−16сз489657 0.0 1008158
03:00−17сз379771 0.1 1010138
06:00−19ссз489791 0.0 1013184
09:00−18ссз489693 0.1 1015310
12:00−16ссз5791100 0.0 1016432
15:00−14ссз588799 0.0 1017609
18:00−18сз3794100 0.0 1018127
21:00−22ссз359779 0.0 102081